Date,TemperatureHighF,TemperatureAvgF,TemperatureLowF,DewpointHighF,DewpointAvgF,DewpointLowF,HumidityHigh,HumidityAvg,HumidityLow,PressureMaxIn,PressureMinIn,WindSpeedMaxMPH,WindSpeedAvgMPH,GustSpeedMaxMPH,PrecipitationSumIn
2013-10-1,85.3,69.6,57.9,67.8,60.6,54.4,89,74,54,30.09,30.00,13,2,13,0.00
2013-10-2,82.8,71.0,63.0,70.9,64.4,58.4,88,80,67,30.12,30.04,12,1,13,0.06
2013-10-3,87.8,74.2,66.6,72.1,65.4,61.9,89,76,52,30.10,29.99,9,1,9,0.00
2013-10-4,90.0,74.5,63.7,72.2,64.9,58.8,85,73,54,30.10,30.02,11,2,12,0.00
2013-10-5,80.2,71.5,66.4,71.1,66.0,61.4,91,83,68,30.06,29.92,9,2,10,2.88
2013-10-6,73.2,63.7,54.0,68.1,59.7,49.7,91,87,79,29.93,29.78,16,4,20,2.07
2013-10-7,64.0,53.7,44.2,49.7,45.0,40.6,89,74,53,30.14,29.89,16,2,16,0.00
2013-10-8,68.4,55.5,44.4,52.2,45.7,40.7,89,72,49,30.21,30.12,12,1,12,0.00
2013-10-9,77.4,60.7,46.8,60.1,50.7,42.2,86,71,52,30.20,30.11,7,0,7,0.00
2013-10-10,75.7,62.6,52.0,58.2,51.5,46.1,86,69,49,30.17,30.04,9,1,9,0.00
2013-10-11,80.4,63.9,50.7,57.9,50.4,44.0,80,63,42,30.09,30.00,5,0,6,0.00
2013-10-12,83.1,67.0,56.5,62.2,54.8,50.0,84,67,44,30.11,30.01,7,1,9,0.00
2013-10-13,78.4,66.3,59.5,64.0,56.9,47.6,84,72,60,30.26,30.10,13,2,13,0.00
2013-10-14,75.0,61.0,49.8,58.3,50.0,41.8,81,68,54,30.28,30.13,8,2,8,0.00
2013-10-15,76.3,64.7,57.4,62.9,57.2,51.6,87,77,61,30.14,29.94,13,2,13,0.00
2013-10-16,64.0,60.8,55.2,58.9,55.4,50.3,86,83,78,29.98,29.92,7,2,7,0.20
2013-10-17,61.9,53.1,45.0,53.2,46.4,40.7,87,78,62,30.00,29.89,16,2,16,0.33
2013-10-18,71.8,52.9,41.4,54.9,44.2,38.1,89,74,48,30.06,29.94,10,1,14,0.00
2013-10-19,54.1,47.4,37.4,46.7,41.8,33.1,87,81,65,30.03,29.85,15,2,15,0.53
2013-10-20,66.2,48.2,34.3,50.7,38.7,30.9,89,72,47,30.07,30.00,15,2,15,0.00
2013-10-21,72.9,53.6,37.9,50.3,40.8,32.0,81,64,40,30.04,29.92,20,3,20,0.00
2013-10-22,61.3,50.1,37.2,45.5,37.4,32.5,85,64,40,30.05,29.81,12,1,14,0.00
2013-10-23,48.7,43.5,37.0,41.1,34.6,29.4,81,71,56,30.08,29.77,20,4,21,0.06
2013-10-24,51.3,41.3,32.7,39.4,31.0,23.6,79,67,53,30.30,30.07,20,3,20,0.00
2013-10-25,50.5,37.2,28.0,31.3,25.9,21.8,81,65,44,30.46,30.30,13,1,13,0.00
2013-10-26,57.6,40.5,27.0,38.0,29.4,20.4,79,66,47,30.30,29.99,22,4,24,0.00
2013-10-27,64.6,49.0,34.3,45.8,36.3,30.3,87,64,41,30.09,30.02,11,1,12,0.00
2013-10-28,67.1,54.5,48.6,47.7,41.5,34.9,86,62,45,30.25,30.06,7,0,7,0.00
2013-10-29,62.4,54.7,48.2,55.1,50.1,44.5,88,84,76,30.31,30.14,7,0,7,0.53
2013-10-30,76.8,64.7,56.8,65.7,58.6,53.3,90,81,66,30.16,30.02,10,3,10,0.71
2013-10-31,64.9,63.1,61.3,61.4,57.0,53.5,89,81,73,30.03,29.47,25,9,28,2.83